Weather History for KIFA - February, 2014

Change the Weather History Date:

Tuesday, February 25, 2014

  Actual Average Record
Temperature  
Mean Temperature 3 °F -  
Max Temperature 10 °F 35 °F 54 °F (1958)
Min Temperature -4 °F 16 °F -14 °F (1993)
Degree Days  
Heating Degree Days 62    
Moisture  
Dew Point -3 °F    
Average Humidity 75    
Maximum Humidity 87    
Minimum Humidity 64    
Precipitation  
Precipitation 0.00 in - - ()
Sea Level Pressure  
Sea Level Pressure 30.33 in    
Wind  
Wind Speed 14 mph (NW)    
Max Wind Speed 23 mph    
Max Gust Speed 30 mph    
Visibility 10 miles    
Events Snow    
Averages and records for this station are not official NWS values.
T = Trace of Precipitation, MM = Missing Value Source: NWS Daily Summary

Daily Weather History Graph

Daily Weather History Graph

Search for Another Location

Airport or City:

Trip Planner

Search our weather history database for the weather conditions in past years. The results will help you decide how hot, cold, wet, or windy it might be!

Date:

Astronomy

Feb. 25, 2014 Rise Set
Actual Time 6:54 AM CST 5:57 PM CST
Civil Twilight 6:26 AM CST 6:26 PM CST
Nautical Twilight 5:53 AM CST 6:59 PM CST
Astronomical Twilight 5:21 AM CST 7:31 PM CST
Moon 3:53 AM CST (2/25) 2:01 PM CST (2/25)
Length of Visible Light 11h 59m
Length of Day
11h 03m
Waning Crescent, 18% of the Moon is Illuminated
Feb 25
Waning Crescent
Mar 1
New
Mar 8
First Quarter
Mar 16
Full
Mar 23
Last Quarter

Hourly Weather History & Observations

Time (CST) Temp. Windchill Dew Point Humidity Pressure Visibility Wind Dir Wind Speed Gust Speed Precip Events Conditions
12:15 AM 9.5 °F -2.6 °F 6.3 °F 87% 30.31 in 5.0 mi NW 8.1 mph - N/A Snow Light Snow
12:35 AM 9.5 °F -3.5 °F 5.7 °F 85% 30.31 in 10.0 mi NW 9.2 mph - N/A Snow Light Snow
12:55 AM 9.3 °F -3.8 °F 5.0 °F 83% 30.31 in 10.0 mi NW 9.2 mph - N/A Snow Light Snow
1:15 AM 9.3 °F -6.8 °F 5.0 °F 83% 30.31 in 10.0 mi NNW 13.8 mph - N/A   Overcast
1:35 AM 9.1 °F -5.6 °F 4.3 °F 81% 30.32 in 10.0 mi NW 11.5 mph - N/A   Overcast
1:55 AM 7.7 °F -9.5 °F 3.2 °F 82% 30.32 in 10.0 mi NW 15.0 mph - N/A   Overcast
2:15 AM 8.2 °F -8.2 °F 3.9 °F 83% 30.32 in 10.0 mi NW 13.8 mph - N/A Snow Light Snow
2:35 AM 8.1 °F -8.4 °F 3.7 °F 83% 30.32 in 10.0 mi NW 13.8 mph - N/A Snow Light Snow
2:55 AM 7.7 °F -8.9 °F 3.4 °F 83% 30.31 in 10.0 mi NW 13.8 mph - N/A   Overcast
3:15 AM 6.8 °F -11.8 °F 2.3 °F 82% 30.31 in 10.0 mi NW 17.3 mph - N/A   Mostly Cloudy
3:35 AM 6.1 °F -12.8 °F 1.6 °F 82% 30.31 in 7.0 mi NNW 17.3 mph - N/A   Mostly Cloudy
3:55 AM 5.0 °F -13.6 °F 0.5 °F 82% 30.32 in 10.0 mi NW 16.1 mph - N/A   Clear
4:15 AM 3.9 °F -15.6 °F -0.6 °F 82% 30.31 in 10.0 mi NNW 17.3 mph - N/A   Clear
4:35 AM 3.0 °F -15.5 °F -2.9 °F 76% 30.32 in 10.0 mi NNW 15.0 mph - N/A   Clear
4:55 AM 2.3 °F -15.7 °F -3.3 °F 77% 30.33 in 10.0 mi NW 13.8 mph - N/A   Clear
5:15 AM 1.0 °F -15.8 °F -4.2 °F 79% 30.33 in 10.0 mi NW 11.5 mph - N/A   Clear
5:35 AM 1.0 °F -17.3 °F -4.0 °F 79% 30.34 in 10.0 mi NW 13.8 mph - N/A   Clear
5:55 AM -1.3 °F -20.3 °F -6.0 °F 81% 30.34 in 10.0 mi NW 13.8 mph - N/A   Clear
6:15 AM -2.0 °F -18.7 °F -6.9 °F 80% 30.33 in 10.0 mi NW 10.4 mph - N/A   Clear
6:35 AM -3.1 °F -19.1 °F -7.6 °F 81% 30.33 in 10.0 mi NW 9.2 mph - N/A   Clear
6:55 AM -3.1 °F -17.9 °F -7.6 °F 81% 30.34 in 7.0 mi WNW 8.1 mph - N/A   Clear
7:15 AM -4.0 °F -21.2 °F -8.5 °F 81% 30.34 in 10.0 mi NW 10.4 mph - N/A   Clear
7:35 AM -4.0 °F -19.0 °F -8.5 °F 81% 30.34 in 10.0 mi WNW 8.1 mph - N/A   Clear
7:55 AM -4.0 °F -21.2 °F -8.5 °F 81% 30.33 in 10.0 mi NW 10.4 mph - N/A   Clear
8:15 AM -2.2 °F -21.5 °F -7.2 °F 79% 30.35 in 10.0 mi NW 13.8 mph - N/A   Clear
8:35 AM -1.5 °F -19.0 °F -7.1 °F 77% 30.35 in 10.0 mi NW 11.5 mph - N/A   Clear
8:55 AM -0.4 °F -19.9 °F -6.7 °F 75% 30.36 in 10.0 mi NW 15.0 mph - N/A   Clear
9:15 AM 0.3 °F -17.5 °F -5.8 °F 75% 30.36 in 10.0 mi NW 12.7 mph - N/A   Clear
9:35 AM 1.2 °F -17.1 °F -5.6 °F 73% 30.35 in 10.0 mi NW 13.8 mph - N/A   Clear
9:55 AM 2.8 °F -15.7 °F -4.5 °F 71% 30.35 in 10.0 mi WNW 15.0 mph - N/A   Clear
10:15 AM 3.7 °F -13.2 °F -4.0 °F 70% 30.36 in 10.0 mi WNW 12.7 mph - N/A   Clear
10:35 AM 3.6 °F -16.6 °F -4.5 °F 69% 30.36 in 10.0 mi NW 18.4 mph - N/A   Clear
10:55 AM 3.6 °F -17.1 °F -4.4 °F 70% 30.36 in 10.0 mi NW 19.6 mph - N/A   Clear
11:15 AM 5.0 °F -13.0 °F -3.6 °F 68% 30.37 in 10.0 mi NW 15.0 mph - N/A   Clear
11:35 AM 5.0 °F -13.6 °F -3.6 °F 68% 30.36 in 10.0 mi WNW 16.1 mph - N/A   Clear
11:55 AM 5.0 °F -14.2 °F -4.0 °F 66% 30.36 in 10.0 mi WNW 17.3 mph - N/A   Clear
12:15 PM 5.0 °F -12.3 °F -3.6 °F 68% 30.36 in 10.0 mi WNW 13.8 mph - N/A   Clear
12:35 PM 5.5 °F -13.5 °F -2.4 °F 70% 30.36 in 10.0 mi West 17.3 mph - N/A   Clear
12:55 PM 5.7 °F -12.6 °F -2.6 °F 69% 30.35 in 10.0 mi WNW 16.1 mph - N/A   Clear
1:15 PM 5.7 °F -12.6 °F -2.6 °F 69% 30.33 in 10.0 mi WNW 16.1 mph - N/A   Clear
1:35 PM 6.4 °F -10.5 °F -2.7 °F 66% 30.32 in 10.0 mi WNW 13.8 mph - N/A   Clear
1:55 PM 7.5 °F -9.7 °F -2.4 °F 64% 30.32 in 10.0 mi WNW 15.0 mph - N/A   Clear
2:15 PM 7.7 °F -11.2 °F -2.2 °F 64% 30.32 in 10.0 mi West 18.4 mph - N/A   Clear
2:35 PM 7.0 °F -9.8 °F -2.4 °F 66% 30.31 in 10.0 mi WNW 13.8 mph - N/A   Clear
2:55 PM 8.4 °F -9.7 °F -1.1 °F 65% 30.30 in 10.0 mi WNW 17.3 mph - N/A   Clear
3:15 PM 9.0 °F -7.3 °F -0.4 °F 66% 30.30 in 10.0 mi West 13.8 mph - N/A   Clear
3:35 PM 9.3 °F -7.4 °F 0.7 °F 68% 30.30 in 10.0 mi West 15.0 mph - N/A   Clear
3:55 PM 9.7 °F -7.0 °F 1.2 °F 69% 30.30 in 10.0 mi West 15.0 mph - N/A   Clear
4:15 PM 10.2 °F -7.4 °F 2.1 °F 70% 30.29 in 10.0 mi West 17.3 mph 23.0 mph N/A   Scattered Clouds
4:35 PM 9.5 °F -8.8 °F 2.1 °F 72% 30.29 in 10.0 mi West 18.4 mph - N/A   Scattered Clouds
4:55 PM 9.5 °F -9.3 °F 1.8 °F 71% 30.29 in 10.0 mi WNW 19.6 mph 25.3 mph N/A   Clear
5:15 PM 8.6 °F -10.0 °F 0.5 °F 70% 30.29 in 10.0 mi WNW 18.4 mph 24.2 mph N/A   Clear
5:35 PM 7.9 °F -9.9 °F -0.2 °F 70% 30.30 in 10.0 mi WNW 16.1 mph 21.9 mph N/A   Clear
5:55 PM 6.3 °F -12.0 °F -1.3 °F 71% 30.30 in 10.0 mi WNW 16.1 mph - N/A   Clear
6:15 PM 5.0 °F -10.8 °F -2.2 °F 72% 30.30 in 10.0 mi WNW 11.5 mph - N/A   Clear
6:35 PM 4.8 °F -11.8 °F -2.2 °F 73% 30.31 in 10.0 mi WNW 12.7 mph - N/A   Scattered Clouds
6:55 PM 4.8 °F -14.4 °F -2.0 °F 73% 30.32 in 10.0 mi WNW 17.3 mph - N/A   Scattered Clouds
7:15 PM 4.8 °F -13.8 °F -1.3 °F 76% 30.32 in 7.0 mi WNW 16.1 mph - N/A   Mostly Cloudy
7:35 PM 3.9 °F -15.0 °F -1.3 °F 79% 30.33 in 10.0 mi NW 16.1 mph - N/A   Scattered Clouds
7:55 PM 3.2 °F -19.0 °F -2.2 °F 78% 30.33 in 10.0 mi NW 23.0 mph 27.6 mph N/A   Clear
8:15 PM 2.1 °F -20.0 °F -3.8 °F 76% 30.35 in 5.0 mi NW 21.9 mph 27.6 mph N/A   Haze
8:35 PM 1.4 °F -21.0 °F -4.5 °F 76% 30.36 in 4.0 mi NW 21.9 mph 29.9 mph N/A   Haze
8:55 PM 0.5 °F -22.6 °F -5.4 °F 76% 30.36 in 10.0 mi NW 23.0 mph - N/A   Clear
9:15 PM -0.0 °F -22.9 °F -6.2 °F 75% 30.36 in 10.0 mi NW 21.9 mph 26.5 mph N/A   Clear
9:35 PM -0.4 °F -23.8 °F -6.7 °F 75% 30.38 in 7.0 mi NW 23.0 mph 27.6 mph N/A   Clear
9:55 PM -0.4 °F -23.3 °F -7.1 °F 73% 30.38 in 7.0 mi NW 21.9 mph 25.3 mph N/A   Clear
10:15 PM -0.8 °F -22.8 °F -7.6 °F 73% 30.38 in 10.0 mi NW 19.6 mph - N/A   Clear
10:35 PM -1.5 °F -23.2 °F -8.1 °F 73% 30.39 in 10.0 mi NW 18.4 mph 25.3 mph N/A   Clear
10:55 PM -1.3 °F -25.0 °F -8.0 °F 73% 30.39 in 5.0 mi NW 23.0 mph - N/A   Haze
11:15 PM -1.8 °F -23.6 °F -9.0 °F 71% 30.38 in 10.0 mi NW 18.4 mph - N/A   Clear
11:35 PM -2.4 °F -24.3 °F -9.4 °F 72% 30.37 in 10.0 mi NW 18.4 mph - N/A   Clear
11:55 PM -3.1 °F -25.3 °F -9.9 °F 73% 30.37 in 10.0 mi NW 18.4 mph - N/A   Clear